Effective Sunday, March 17, 2024, the National Weather Service National Data Buoy Center will discontinue its Dial-A-Buoy Interactive Voice Response system. For more information, see Service Change Notice 24-06 (PDF).

Station WAXM3 - Carriage House, Waquoit Bay Reserve, MA Image indicating link to RSS feed of recent meteorological observations for station WAXM3


Conditions at WAXM3 as of
(5:45 pm EST)
2245 GMT on 02/27/2024:
     

Click on the graph icon in the table below to see a time series plot of the last five days of that observation.

5-day plot - Wind Direction Wind Direction (WDIR): SE ( 140 deg true )
5-day plot - Wind Speed Wind Speed (WSPD): 1.9 kts
5-day plot - Atmospheric Pressure Atmospheric Pressure (PRES):30.06 in
5-day plot - Air Temperature Air Temperature (ATMP): 44.1 °F
5-day plot - Dew Point Dew Point (DEWP): 44.1 °F
5-day plot -  Wind Speed, Wind Gust and Atmospheric Pressure Combined plot of Wind Speed, Gust, and Air Pressure
Previous observations
TIME
(EST)
5-day plot - Wind Direction
WDIR
 
5-day plot - Wind Speed
WSPD
kts
5-day plot - Wind Gust
GST
kts
5-day plot - Wave Height
WVHT
ft
5-day plot - Dominant Wave Period
DPD
sec
5-day plot - Average Wave Period
APD
sec
5-day plot - Mean Wave Direction
MWD
 
5-day plot - Atmospheric Pressure
PRES
in
5-day plot - Pressure Tendency
PTDY
in
5-day plot - Air Temperature
ATMP
°F
5-day plot - Water Temperature
WTMP
°F
5-day plot - Dew Point
DEWP
°F
5-day plot - Salinity
SAL
psu
5-day plot - Visibility
VIS
nmi
5-day plot - Tide (above MLLW)
TIDE
ft
2024-02-27 05:30 pmSSE 1.9-----30.06- 43.9- 43.9---
2024-02-27 05:15 pm SE 1.9-----30.06- 43.9- 43.9---
2024-02-27 05:00 pmSSE 2.9-----30.06+0.00 44.4- 44.2---
2024-02-27 04:45 pmSSE 2.9-----30.06- 46.8- 45.1---
2024-02-27 04:30 pm SE 1.0-----30.06- 49.6- 44.8---
2024-02-27 04:15 pmESE 1.0-----30.06- 50.0- 44.1---
2024-02-27 04:00 pm SE 1.0-----30.06+0.00 50.0- 44.1---
2024-02-27 03:45 pm SE 1.9-----30.06- 49.5- 44.6---
2024-02-27 03:30 pmESE 1.9-----30.06- 50.2- 45.0---
2024-02-27 03:15 pm SE 2.9-----30.06- 49.5- 45.0---
2024-02-27 03:00 pm SE 1.9-----30.06-0.03 48.4- 45.0---
2024-02-27 02:45 pmSSE 2.9-----30.06- 48.2- 44.6---
2024-02-27 02:30 pm SE 2.9-----30.06- 50.0- 44.8---
2024-02-27 02:15 pmSSE 2.9-----30.06- 50.7- 45.1---
2024-02-27 02:00 pmSSE 2.9-----30.06-0.06 49.5- 44.6---
2024-02-27 01:45 pmSSE 2.9-----30.06- 49.8- 44.2---
2024-02-27 01:30 pmSSE 2.9-----30.06- 49.3- 44.1---
2024-02-27 01:15 pmSSE 2.9-----30.06- 48.9- 44.1---
2024-02-27 01:00 pmSSE 2.9-----30.06-0.06 47.7- 43.7---
2024-02-27 12:45 pm SE 2.9-----30.06- 47.5- 43.5---
2024-02-27 12:30 pmSSE 2.9-----30.09- 48.4- 43.9---
2024-02-27 12:15 pmSSE 2.9-----30.09- 47.7- 43.7---
2024-02-27 12:00 pmSSE 2.9-----30.09-0.03 46.9- 43.0---
2024-02-27 11:45 amSSE 2.9-----30.09- 49.8- 44.1---
2024-02-27 11:30 amSSE 2.9-----30.12- 49.5- 44.6---
2024-02-27 11:15 am SE 2.9-----30.12- 49.5- 44.6---
2024-02-27 11:00 am SE 2.9-----30.12-0.03 48.2- 44.2---
2024-02-27 10:45 amSSE 2.9-----30.12- 47.3- 44.2---
2024-02-27 10:30 am SE 1.9-----30.12- 46.2- 44.2---
2024-02-27 10:15 amSSE 1.9-----30.12- 45.9- 45.3---
2024-02-27 10:00 amSSE 2.9-----30.12+0.00 44.6- 44.6---
2024-02-27 09:45 amSSE 1.9-----30.12- 43.3- 43.3---
2024-02-27 09:30 amSSE 1.9-----30.12- 42.4- 42.4---
2024-02-27 09:15 amSSE 1.9-----30.12- 41.7- 41.7---
2024-02-27 09:00 am SE 1.9-----30.12+0.00 41.4- 41.4---
2024-02-27 08:45 am SE 1.9-----30.12- 41.5- 41.5---
2024-02-27 08:30 am SE 1.9-----30.12- 41.0- 41.0---
2024-02-27 08:15 amESE 1.0-----30.12- 40.6- 40.6---
2024-02-27 08:00 amESE 1.0-----30.15+0.03 39.4- 39.4---
2024-02-27 07:45 am SE 1.9-----30.15- 39.0- 39.0---
2024-02-27 07:30 am SE 1.9-----30.15- 39.0- 39.0---
2024-02-27 07:15 amESE 1.0-----30.12- 39.0- 39.0---
2024-02-27 07:00 am SE 1.0-----30.12+0.00 38.8- 38.8---
2024-02-27 06:45 amESE 1.0-----30.12- 38.5- 38.5---
2024-02-27 06:30 amESE 1.0-----30.12- 38.5- 38.5---
2024-02-27 06:15 am SE 1.0-----30.12- 38.7- 38.7---
2024-02-27 06:00 amESE 1.0-----30.12+0.03 38.8- 38.8---
2024-02-27 05:45 am- 0.0-----30.12- 39.0- 39.0---
2024-02-27 05:30 am- 0.0-----30.12- 39.0- 39.0---
2024-02-27 05:15 am- 0.0-----30.12- 39.0- 39.0---
2024-02-27 05:00 am- 0.0-----30.12+0.00 39.0- 39.0---
2024-02-27 04:45 amESE 1.0-----30.12- 38.7- 38.7---
2024-02-27 04:30 am- 0.0-----30.12- 38.5- 38.5---
2024-02-27 04:15 am SE 1.0-----30.12- 38.5- 38.5---
2024-02-27 04:00 am SE 1.0-----30.12+0.00 38.5- 38.5---
2024-02-27 03:45 am SE 1.9-----30.12- 38.5- 38.5---
2024-02-27 03:30 am SE 1.9-----30.12- 38.7- 38.7---
2024-02-27 03:15 amSSE 1.9-----30.12- 38.8- 38.8---
2024-02-27 03:00 amSSE 1.0-----30.09+0.00 38.8- 38.8---
2024-02-27 02:45 am S 1.0-----30.09- 38.8- 38.8---
2024-02-27 02:30 am S 1.0-----30.12- 39.0- 39.0---
2024-02-27 02:15 am S 1.0-----30.12- 39.2- 39.2---
2024-02-27 02:00 amSSW 1.0-----30.12+0.03 39.2- 39.2---
2024-02-27 01:45 am S 1.0-----30.12- 39.4- 39.4---
2024-02-27 01:30 am S 1.0-----30.12- 39.6- 39.6---
2024-02-27 01:15 amSSW 1.0-----30.12- 39.7- 39.7---
2024-02-27 01:00 am- 0.0-----30.12+0.03 39.6- 39.6---
2024-02-27 12:45 am- 0.0-----30.12- 39.0- 39.0---
2024-02-27 12:30 am- 0.0-----30.12- 38.3- 38.3---
2024-02-27 12:15 am- 0.0-----30.12- 38.1- 38.1---
2024-02-27 12:00 am SE 1.0-----30.09+0.00 38.5- 38.5---
2024-02-26 11:45 pmSSE 1.0-----30.12- 39.2- 39.2---
2024-02-26 11:30 pm- 0.0-----30.12- 38.7- 38.7---
2024-02-26 11:15 pm- 0.0-----30.09- 39.0- 39.0---
2024-02-26 11:00 pm- 0.0-----30.09+0.03 39.6- 39.6---
2024-02-26 10:45 pmWSW 1.0-----30.09- 39.6- 39.6---
2024-02-26 10:30 pm- 0.0-----30.09- 39.6- 39.6---
2024-02-26 10:15 pm S 1.0-----30.09- 39.7- 39.7---
2024-02-26 10:00 pm S 1.0-----30.09+0.03 39.7- 39.7---
2024-02-26 09:45 pm S 1.9-----30.09- 40.1- 40.1---
2024-02-26 09:30 pm S 2.9-----30.09- 40.3- 40.3---
2024-02-26 09:15 pm S 2.9-----30.09- 40.3- 40.3---
2024-02-26 09:00 pm S 1.9-----30.09+0.06 39.9- 39.9---
2024-02-26 08:45 pmSSW 1.9-----30.09- 39.7- 39.7---
2024-02-26 08:30 pmSSW 1.9-----30.06- 39.7- 39.7---
2024-02-26 08:15 pm S 1.9-----30.06- 39.7- 39.7---
2024-02-26 08:00 pm S 2.9-----30.06+0.06 39.6- 39.6---
2024-02-26 07:45 pm S 1.9-----30.06- 39.4- 39.4---
2024-02-26 07:30 pmSSW 1.9-----30.06- 39.6- 39.6---
2024-02-26 07:15 pm S 1.9-----30.06- 39.7- 39.7---
2024-02-26 07:00 pm S 2.9-----30.06+0.06 39.7- 39.7---